This is the latest recevied weather packets stored in our database for station/object K6GMW. If no packets are shown the sender has not sent any weather packets the latest 10 day(s).
| Time | Temp. | Humidity | Pressure | Rain* | Wind** | Luminosity | Snow |
|---|---|---|---|---|---|---|---|
| 1787794986 | 33.89° C | 47% | 1012.2 hPa | 0 mm | - | 0 W/m² | - |
| 1787794681 | 34.44° C | 45% | 1012 hPa | 0 mm | - | 0 W/m² | - |
| 1787794377 | 34.44° C | 44% | 1012 hPa | 0 mm | - | 0 W/m² | - |
| 1787794077 | 35° C | 43% | 1012.1 hPa | 0 mm | - | 0 W/m² | - |
| 1787793774 | 35° C | 42% | 1012 hPa | 0 mm | - | 0 W/m² | - |
| 1787793473 | 35.56° C | 42% | 1012.2 hPa | 0 mm | - | 0 W/m² | - |
| 1787793168 | 35.56° C | 42% | 1012.2 hPa | 0 mm | - | 0 W/m² | - |
| 1787792863 | 35.56° C | 41% | 1012.1 hPa | 0 mm | - | 0 W/m² | - |
| 1787792559 | 35.56° C | 41% | 1012.2 hPa | 0 mm | - | 1 W/m² | - |
| 1787792256 | 36.11° C | 40% | 1012 hPa | 0 mm | - | 2 W/m² | - |
| 1787791955 | 36.11° C | 40% | 1011.9 hPa | 0 mm | - | 3 W/m² | - |
| 1787791654 | 36.11° C | 39% | 1011.9 hPa | 0 mm | - | 4 W/m² | - |
| 1787791350 | 36.11° C | 39% | 1011.9 hPa | 0 mm | - | 5 W/m² | - |
| 1787791044 | 36.11° C | 40% | 1011.9 hPa | 0 mm | - | 7 W/m² | - |
| 1787790741 | 36.11° C | 41% | 1011.9 hPa | 0 mm | - | 14 W/m² | - |
| 1787790435 | 36.67° C | 40% | 1011.9 hPa | 0 mm | - | 21 W/m² | - |
| 1787790131 | 36.67° C | 39% | 1011.8 hPa | 0 mm | - | 27 W/m² | - |
| 1787789827 | 36.67° C | 39% | 1011.6 hPa | 0 mm | - | 34 W/m² | - |
| 1787789526 | 36.67° C | 39% | 1011.6 hPa | 0 mm | - | 38 W/m² | - |
| 1787789225 | 37.22° C | 39% | 1011.5 hPa | 0 mm | - | 50 W/m² | - |
| 1787788920 | 37.78° C | 39% | 1011.5 hPa | 0 mm | - | 55 W/m² | - |
| 1787788618 | 37.78° C | 37% | 1011.7 hPa | 0 mm | - | 62 W/m² | - |
| 1787788313 | 37.78° C | 38% | 1011.5 hPa | 0 mm | - | 73 W/m² | - |
| 1787788008 | 38.33° C | 36% | 1011.4 hPa | 0 mm | - | 79 W/m² | - |
| 1787787703 | 37.78° C | 38% | 1011.5 hPa | 0 mm | - | 91 W/m² | - |
* Rain latest hour (hover to see other rain measurements)
** Current wind speed in m/s (hover to see current wind gust speed)